| time (UTC) | temp F | wind direction | speed MPH | gust MPH | rain 1hr in | rain 24hr in | rain mn in | humidity % | barometer mb |
| 20260905095348 | 78 | 188 | 5.0 | 9.0 | 0.00 | 0.00 | 0.00 | 62 | 1024.6 |
| 20260905094346 | 77 | 184 | 6.0 | 8.0 | 0.00 | 0.00 | 0.00 | 63 | 1024.5 |
| 20260905093343 | 77 | 200 | 5.0 | 7.0 | 0.00 | 0.00 | 0.00 | 63 | 1024.6 |
| 20260905092344 | 77 | 157 | 5.0 | 8.0 | 0.00 | 0.00 | 0.00 | 64 | 1024.6 |
| 20260905091343 | 77 | 186 | 5.0 | 7.0 | 0.00 | 0.00 | 0.00 | 65 | 1024.6 |
| 20260905090337 | 77 | 174 | 5.0 | 7.0 | 0.00 | 0.00 | 0.00 | 65 | 1024.6 |
| 20260905085333 | 77 | 165 | 4.0 | 8.0 | 0.00 | 0.00 | 0.00 | 65 | 1024.7 |
| 20260905084329 | 76 | 175 | 4.0 | 7.0 | 0.00 | 0.00 | 0.00 | 67 | 1024.7 |
| 20260905083412 | 77 | 175 | 3.0 | 6.0 | 0.00 | 0.00 | 0.00 | 66 | 1024.7 |
| 20260905082344 | 77 | 179 | 4.0 | 5.0 | 0.00 | 0.00 | 0.00 | 65 | 1024.7 |
| 20260905081342 | 77 | 209 | 3.0 | 5.0 | 0.00 | 0.00 | 0.00 | 64 | 1024.8 |
| 20260905080335 | 77 | 209 | 3.0 | 4.0 | 0.00 | 0.00 | 0.00 | 64 | 1024.9 |
| 20260905075327 | 77 | 209 | 2.0 | 5.0 | 0.00 | 0.00 | 0.00 | 64 | 1025.0 |
| 20260905074406 | 77 | 209 | 4.0 | 5.0 | 0.00 | 0.00 | 0.00 | 64 | 1025.0 |
| 20260905073338 | 77 | 211 | 4.0 | 5.0 | 0.00 | 0.00 | 0.00 | 64 | 1024.8 |
| 20260905072331 | 78 | 211 | 3.0 | 4.0 | 0.00 | 0.00 | 0.00 | 63 | 1024.8 |
| 20260905071346 | 78 | 211 | 1.0 | 3.0 | 0.00 | 0.00 | 0.00 | 63 | 1024.9 |
| 20260905070338 | 78 | 211 | 1.0 | 6.0 | 0.00 | 0.00 | 0.00 | 62 | 1024.8 |
| 20260905065333 | 78 | 223 | 4.0 | 8.0 | 0.00 | 0.00 | 0.00 | 62 | 1024.7 |
| 20260905064329 | 79 | 215 | 6.0 | 8.0 | 0.00 | 0.00 | 0.00 | 62 | 1024.8 |
| 20260905063349 | 79 | 196 | 5.0 | 7.0 | 0.00 | 0.00 | 0.00 | 61 | 1024.7 |
| 20260905062341 | 79 | 218 | 3.0 | 6.0 | 0.00 | 0.00 | 0.00 | 59 | 1024.8 |
| 20260905061334 | 79 | 218 | 4.0 | 6.0 | 0.00 | 0.00 | 0.00 | 58 | 1024.7 |
| 20260905060413 | 80 | 233 | 4.0 | 5.0 | 0.00 | 0.00 | 0.00 | 57 | 1024.7 |
| 20260905055404 | 81 | 216 | 3.0 | 6.0 | 0.00 | 0.00 | 0.00 | 55 | 1024.7 |
| 20260905054338 | 81 | 216 | 5.0 | 6.0 | 0.00 | 0.00 | 0.00 | 53 | 1024.7 |
| 20260905053337 | 82 | 219 | 5.0 | 7.0 | 0.00 | 0.00 | 0.00 | 51 | 1024.7 |
| 20260905052329 | 83 | 214 | 6.0 | 10.0 | 0.00 | 0.00 | 0.00 | 49 | 1024.6 |
| 20260905051329 | 83 | 196 | 4.0 | 5.0 | 0.00 | 0.00 | 0.00 | 48 | 1024.4 |
| 20260905050341 | 83 | 192 | 4.0 | 6.0 | 0.00 | 0.00 | 0.00 | 48 | 1024.4 |
| 20260905045337 | 83 | 184 | 5.0 | 6.0 | 0.00 | 0.00 | 0.00 | 48 | 1024.4 |
| 20260905044336 | 83 | 197 | 5.0 | 8.0 | 0.00 | 0.00 | 0.00 | 48 | 1024.3 |
| 20260905043333 | 83 | 171 | 4.0 | 7.0 | 0.00 | 0.00 | 0.00 | 48 | 1024.4 |
| 20260905042335 | 84 | 182 | 6.0 | 8.0 | 0.00 | 0.00 | 0.00 | 47 | 1024.4 |
| 20260905041335 | 84 | 179 | 5.0 | 8.0 | 0.00 | 0.00 | 0.00 | 48 | 1024.4 |
| 20260905040350 | 84 | 187 | 5.0 | 9.0 | 0.00 | 0.00 | 0.00 | 48 | 1024.4 |
| 20260905035352 | 84 | 177 | 5.0 | 7.0 | 0.00 | 0.00 | 0.00 | 47 | 1024.4 |
| 20260905034350 | 84 | 133 | 4.0 | 7.0 | 0.00 | 0.00 | 0.00 | 46 | 1024.4 |
| 20260905033348 | 85 | 167 | 5.0 | 6.0 | 0.00 | 0.00 | 0.00 | 44 | 1024.4 |
| 20260905032343 | 85 | 191 | 4.0 | 6.0 | 0.00 | 0.00 | 0.00 | 41 | 1024.3 |
| 20260905031342 | 86 | 198 | 5.0 | 7.0 | 0.00 | 0.00 | 0.00 | 37 | 1023.9 |
| 20260905030337 | 87 | 239 | 3.0 | 5.0 | 0.00 | 0.00 | 0.00 | 32 | 1023.6 |
| 20260905025334 | 87 | 239 | 3.0 | 4.0 | 0.00 | 0.00 | 0.00 | 30 | 1023.4 |
| 20260905024333 | 87 | 286 | 2.0 | 4.0 | 0.00 | 0.00 | 0.00 | 31 | 1023.4 |
| 20260905023334 | 88 | 286 | 3.0 | 6.0 | 0.00 | 0.00 | 0.00 | 31 | 1023.1 |
| 20260905022331 | 88 | 307 | 3.0 | 5.0 | 0.00 | 0.00 | 0.00 | 31 | 1022.9 |
| 20260905021330 | 88 | 322 | 2.0 | 4.0 | 0.00 | 0.00 | 0.00 | 30 | 1022.9 |
| 20260905020346 | 89 | 322 | 3.0 | 5.0 | 0.00 | 0.00 | 0.00 | 30 | 1022.8 |
| 20260905015409 | 89 | 311 | 5.0 | 8.0 | 0.00 | 0.00 | 0.00 | 29 | 1022.8 |
| 20260905014347 | 90 | 324 | 4.0 | 8.0 | 0.00 | 0.00 | 0.00 | 30 | 1022.6 |
| 20260905013411 | 90 | 318 | 5.0 | 9.0 | 0.00 | 0.00 | 0.00 | 30 | 1022.6 |
| 20260905012347 | 90 | 312 | 3.0 | 12.0 | 0.00 | 0.00 | 0.00 | 31 | 1022.5 |
| 20260905011346 | 91 | 321 | 7.0 | 10.0 | 0.00 | 0.00 | 0.00 | 30 | 1022.4 |
| 20260905010407 | 91 | 313 | 4.0 | 10.0 | 0.00 | 0.00 | 0.00 | 31 | 1022.4 |
| 20260905005343 | 91 | 267 | 4.0 | 9.0 | 0.00 | 0.00 | 0.00 | 31 | 1022.5 |
| 20260905004342 | 90 | 267 | 3.0 | 6.0 | 0.00 | 0.00 | 0.00 | 31 | 1022.5 |
| 20260905003341 | 91 | 261 | 7.0 | 10.0 | 0.00 | 0.00 | 0.00 | 31 | 1022.4 |
| 20260905002343 | 91 | 271 | 6.0 | 13.0 | 0.00 | 0.00 | 0.00 | 31 | 1022.3 |
| 20260905001341 | 92 | 330 | 8.0 | 14.0 | 0.00 | 0.00 | 0.00 | 29 | 1022.2 |
| 20260905000336 | 93 | 304 | 6.0 | 14.0 | 0.00 | 0.00 | 0.00 | 28 | 1022.1 |
| 20260904235331 | 92 | 338 | 8.0 | 16.0 | 0.00 | 0.00 | 0.00 | 29 | 1022.0 |
| 20260904234414 | 93 | 329 | 4.0 | 15.0 | 0.00 | 0.00 | 0.00 | 28 | 1022.0 |
| 20260904233346 | 94 | 309 | 8.0 | 14.0 | 0.00 | 0.00 | 0.00 | 27 | 1021.9 |
| 20260904232333 | 94 | 240 | 8.0 | 14.0 | 0.00 | 0.00 | 0.00 | 27 | 1022.0 |
| 20260904231330 | 94 | 293 | 6.0 | 14.0 | 0.00 | 0.00 | 0.00 | 29 | 1022.2 |
| 20260904230343 | 93 | 346 | 5.0 | 14.0 | 0.00 | 0.00 | 0.00 | 29 | 1022.2 |
| 20260904225336 | 93 | 296 | 6.0 | 12.0 | 0.00 | 0.00 | 0.00 | 30 | 1022.3 |
| 20260904224332 | 93 | 316 | 9.0 | 18.0 | 0.00 | 0.00 | 0.00 | 29 | 1022.3 |
| 20260904223352 | 93 | 98 | 4.0 | 15.0 | 0.00 | 0.00 | 0.00 | 31 | 1022.4 |
| 20260904222346 | 93 | 304 | 12.0 | 17.0 | 0.00 | 0.00 | 0.00 | 31 | 1022.4 |
| 20260904221342 | 94 | 271 | 4.0 | 19.0 | 0.00 | 0.00 | 0.00 | 30 | 1022.4 |
| 20260904220334 | 94 | 211 | 7.0 | 15.0 | 0.00 | 0.00 | 0.00 | 30 | 1022.4 |
| 20260904215326 | 94 | 290 | 3.0 | 9.0 | 0.00 | 0.00 | 0.00 | 30 | 1022.8 |
| 20260904214348 | 95 | 246 | 5.0 | 11.0 | 0.00 | 0.00 | 0.00 | 28 | 1023.0 |
| 20260904213339 | 94 | 275 | 6.0 | 12.0 | 0.00 | 0.00 | 0.00 | 26 | 1023.0 |
| 20260904212352 | 93 | 261 | 6.0 | 10.0 | 0.00 | 0.00 | 0.00 | 29 | 1023.0 |
| 20260904211406 | 93 | 175 | 4.0 | 13.0 | 0.00 | 0.00 | 0.00 | 30 | 1023.2 |
| 20260904210352 | 92 | 268 | 3.0 | 13.0 | 0.00 | 0.00 | 0.00 | 30 | 1023.4 |
| 20260904205346 | 92 | 244 | 5.0 | 13.0 | 0.00 | 0.00 | 0.00 | 32 | 1023.4 |
| 20260904204340 | 91 | 319 | 1.0 | 13.0 | 0.00 | 0.00 | 0.00 | 35 | 1023.5 |
| 20260904203402 | 91 | 344 | 5.0 | 14.0 | 0.00 | 0.00 | 0.00 | 34 | 1023.7 |
| 20260904202337 | 91 | 257 | 7.0 | 12.0 | 0.00 | 0.00 | 0.00 | 34 | 1024.0 |
| 20260904201401 | 89 | 290 | 9.0 | 14.0 | 0.00 | 0.00 | 0.00 | 38 | 1024.1 |
| 20260904200354 | 90 | 332 | 7.0 | 10.0 | 0.00 | 0.00 | 0.00 | 38 | 1024.3 |
| 20260904195328 | 90 | 218 | 6.0 | 11.0 | 0.00 | 0.00 | 0.00 | 36 | 1024.5 |
| 20260904194352 | 89 | 355 | 5.0 | 13.0 | 0.00 | 0.00 | 0.00 | 39 | 1024.6 |
| 20260904193349 | 90 | 337 | 6.0 | 11.0 | 0.00 | 0.00 | 0.00 | 38 | 1024.7 |
| 20260904192346 | 90 | 218 | 1.0 | 10.0 | 0.00 | 0.00 | 0.00 | 38 | 1024.8 |
| 20260904191345 | 90 | 314 | 3.0 | 8.0 | 0.00 | 0.00 | 0.00 | 39 | 1025.0 |
| 20260904190337 | 88 | 217 | 4.0 | 11.0 | 0.00 | 0.00 | 0.00 | 42 | 1025.0 |
| 20260904185334 | 88 | 305 | 3.0 | 10.0 | 0.00 | 0.00 | 0.00 | 43 | 1025.1 |
| 20260904184330 | 89 | 240 | 2.0 | 10.0 | 0.00 | 0.00 | 0.00 | 43 | 1025.4 |
| 20260904183350 | 89 | 236 | 6.0 | 12.0 | 0.00 | 0.00 | 0.00 | 44 | 1025.4 |
| 20260904182341 | 88 | 257 | 3.0 | 8.0 | 0.00 | 0.00 | 0.00 | 45 | 1025.5 |
| 20260904181402 | 86 | 261 | 5.0 | 8.0 | 0.00 | 0.00 | 0.00 | 48 | 1025.7 |
| 20260904180353 | 85 | 244 | 7.0 | 11.0 | 0.00 | 0.00 | 0.00 | 48 | 1025.8 |
| 20260904175348 | 87 | 281 | 3.0 | 10.0 | 0.00 | 0.00 | 0.00 | 47 | 1025.9 |
| 20260904174342 | 87 | 339 | 2.0 | 8.0 | 0.00 | 0.00 | 0.00 | 49 | 1025.9 |
| 20260904173334 | 87 | 76 | 5.0 | 8.0 | 0.00 | 0.00 | 0.00 | 48 | 1026.0 |
| 20260904172411 | 86 | 317 | 2.0 | 8.0 | 0.00 | 0.00 | 0.00 | 50 | 1026.2 |
| 20260904171341 | 85 | 103 | 5.0 | 8.0 | 0.00 | 0.00 | 0.00 | 51 | 1026.2 |
| 20260904170352 | 85 | 323 | 4.0 | 5.0 | 0.00 | 0.00 | 0.00 | 52 | 1026.4 |
| 20260904165340 | 84 | 71 | 2.0 | 7.0 | 0.00 | 0.00 | 0.00 | 52 | 1026.3 |
| 20260904164329 | 85 | 38 | 4.0 | 9.0 | 0.00 | 0.00 | 0.00 | 53 | 1026.2 |
| 20260904163343 | 83 | 340 | 3.0 | 10.0 | 0.00 | 0.00 | 0.00 | 56 | 1026.1 |
| 20260904162331 | 83 | 12 | 4.0 | 9.0 | 0.00 | 0.00 | 0.00 | 57 | 1025.9 |
| 20260904161351 | 83 | 25 | 5.0 | 11.0 | 0.00 | 0.00 | 0.00 | 58 | 1026.1 |
| 20260904160336 | 83 | 111 | 4.0 | 9.0 | 0.00 | 0.00 | 0.00 | 58 | 1026.1 |
| 20260904155403 | 83 | 34 | 4.0 | 7.0 | 0.00 | 0.00 | 0.00 | 59 | 1026.1 |
| 20260904154352 | 82 | 12 | 2.0 | 5.0 | 0.00 | 0.00 | 0.00 | 59 | 1026.0 |
| 20260904153345 | 82 | 68 | 4.0 | 6.0 | 0.00 | 0.00 | 0.00 | 60 | 1026.0 |
| 20260904152338 | 81 | 59 | 3.0 | 6.0 | 0.00 | 0.00 | 0.00 | 62 | 1025.9 |
| 20260904151332 | 81 | 100 | 3.0 | 6.0 | 0.00 | 0.00 | 0.00 | 63 | 1026.0 |
| 20260904150343 | 80 | 78 | 3.0 | 6.0 | 0.00 | 0.00 | 0.00 | 64 | 1025.9 |
| 20260904145402 | 80 | 84 | 3.0 | 5.0 | 0.00 | 0.00 | 0.00 | 64 | 1025.8 |
| 20260904144357 | 80 | 184 | 1.0 | 3.0 | 0.00 | 0.00 | 0.00 | 65 | 1026.0 |
| 20260904143412 | 79 | 190 | 0.0 | 4.0 | 0.00 | 0.00 | 0.00 | 68 | 1025.9 |
| 20260904142342 | 77 | 190 | 3.0 | 4.0 | 0.00 | 0.00 | 0.00 | 70 | 1025.8 |
| 20260904141403 | 76 | 232 | 4.0 | 7.0 | 0.00 | 0.00 | 0.00 | 71 | 1025.6 |
| 20260904140352 | 76 | 212 | 5.0 | 8.0 | 0.00 | 0.00 | 0.00 | 71 | 1025.4 |
| 20260904135346 | 77 | 219 | 5.0 | 8.0 | 0.00 | 0.00 | 0.00 | 70 | 1025.4 |
| 20260904134345 | 77 | 165 | 5.0 | 9.0 | 0.00 | 0.00 | 0.00 | 70 | 1025.2 |
| 20260904133338 | 76 | 188 | 4.0 | 8.0 | 0.00 | 0.00 | 0.00 | 71 | 1025.1 |
| 20260904132330 | 75 | 191 | 4.0 | 6.0 | 0.00 | 0.00 | 0.00 | 72 | 1024.8 |
| 20260904131345 | 75 | 175 | 3.0 | 6.0 | 0.00 | 0.00 | 0.00 | 73 | 1024.7 |
| 20260904130335 | 75 | 191 | 4.0 | 5.0 | 0.00 | 0.00 | 0.00 | 73 | 1024.7 |
| 20260904125328 | 75 | 183 | 3.0 | 5.0 | 0.00 | 0.00 | 0.00 | 72 | 1024.5 |
| 20260904124350 | 75 | 178 | 3.0 | 6.0 | 0.00 | 0.00 | 0.00 | 72 | 1024.4 |
| 20260904123344 | 75 | 178 | 4.0 | 7.0 | 0.00 | 0.00 | 0.00 | 72 | 1024.2 |
| 20260904122403 | 75 | 181 | 4.0 | 7.0 | 0.00 | 0.00 | 0.00 | 73 | 1024.1 |
| 20260904121403 | 75 | 198 | 4.0 | 5.0 | 0.00 | 0.00 | 0.00 | 73 | 1024.0 |
| 20260904120333 | 75 | 43 | 0.0 | 2.0 | 0.00 | 0.00 | 0.00 | 71 | 1024.0 |
| 20260904115352 | 75 | 43 | 1.0 | 3.0 | 0.00 | 0.00 | 0.00 | 71 | 1023.9 |
| 20260904114352 | 76 | 43 | 1.0 | 3.0 | 0.00 | 0.00 | 0.00 | 71 | 1023.9 |
| 20260904113346 | 76 | 43 | 2.0 | 3.0 | 0.00 | 0.00 | 0.00 | 70 | 1023.9 |
| 20260904112339 | 76 | 43 | 2.0 | 4.0 | 0.00 | 0.00 | 0.00 | 69 | 1023.9 |
| 20260904111334 | 76 | 43 | 2.0 | 3.0 | 0.00 | 0.00 | 0.00 | 70 | 1023.9 |
| 20260904110346 | 76 | 43 | 3.0 | 4.0 | 0.00 | 0.00 | 0.00 | 70 | 1024.0 |
| 20260904105340 | 76 | 43 | 3.0 | 4.0 | 0.00 | 0.00 | 0.00 | 71 | 1024.0 |
| 20260904104335 | 76 | 53 | 2.0 | 4.0 | 0.00 | 0.00 | 0.00 | 71 | 1023.9 |
| 20260904103329 | 76 | 36 | 2.0 | 4.0 | 0.00 | 0.00 | 0.00 | 70 | 1023.9 |
| 20260904102328 | 76 | 36 | 3.0 | 4.0 | 0.00 | 0.00 | 0.00 | 69 | 1023.9 |
| 20260904101327 | 76 | 36 | 3.0 | 5.0 | 0.00 | 0.00 | 0.00 | 70 | 1023.9 |
| 20260904100340 | 76 | 76 | 3.0 | 4.0 | 0.00 | 0.00 | 0.00 | 70 | 1023.8 |